Location: Caltech
(34.1382°N, 118.1253°W)
Time: 23:59:41
(UTC-07:00)

Cosmos 1937 Rocket - Visible Passes

Search period start: 30 September 2016 00:00
Search period end: 10 October 2016 00:00
Orbit: 746 x 781 km, 74.0° (Epoch: 30 September)

Date Brightness Start Highest point End Pass type
(mag) Time Alt. Az. Time Alt. Az. Time Alt. Az.
30 Sep 5.4 03:52:57 24° ESE 03:53:12 25° E 03:57:24 10° NE visible
30 Sep 4.2 05:33:12 26° WSW 05:34:56 32° WNW 05:39:39 10° N visible
01 Oct 6.3 03:16:20 12° E 03:16:20 12° E 03:17:30 10° ENE visible
01 Oct 3.5 04:56:35 59° WNW 04:56:35 59° WNW 05:01:46 10° N visible
02 Oct 4.3 04:19:49 47° NNE 04:19:49 47° NNE 04:23:34 10° NNE visible
02 Oct 5.3 06:00:02 11° WNW 06:00:50 12° WNW 06:02:37 10° NW visible
03 Oct 5.7 03:42:56 22° NE 03:42:56 22° NE 03:45:01 10° NNE visible
03 Oct 5.0 05:23:10 20° NW 05:23:10 20° NW 05:26:09 10° NNW visible
04 Oct 5.0 04:46:12 24° NNW 04:46:12 24° NNW 04:48:36 10° N visible
05 Oct 5.6 04:09:09 19° N 04:09:09 19° N 04:10:38 10° NNE visible
06 Oct 6.3 03:32:02 12° NNE 03:32:02 12° NNE 03:32:21 10° NNE visible
07 Oct 6.0 04:35:04 10° NNW 04:35:04 10° NNW 04:35:11 10° N visible
